[ ตารางข้อมูล ] [ Min-Max ] [ วันนี้4 ] [ วันนี้2 ] [ เทียบ3วัน A ] [ เทียบ4วัน B ]   

วันนี้2   [ ◀ ช่วงเก่ากว่า ] [ ช่วงที่ 320 ] [ ช่วงใหม่กว่า ▶ ] [ ล่าสุด ]    [ 3 ชั่วโมง ] [ 6 ชั่วโมง ] [ 12 ชั่วโมง ] [ 24 ชั่วโมง ]   วันนี้2

อุณภูมิตู้ Knockdown4529  ราย 3 ชั่วโมง  ที่วัดได้ ในช่วงวันเวลา 30/03/2026 (22:19) ถึง 31/03/2026 (01:19) 
ความชื้นในตู้ Knockdown4529  ราย 3 ชั่วโมง  ที่วัดได้ ในช่วงวันเวลา 30/03/2026 (22:19) ถึง 31/03/2026 (01:19) 

 
DS18B20SHTC3 
IDDate d/m/Y & Timedata1
สูง
data2
ต่ำ
data3
นอก
temp
pcb
hum
pcb
Time
 7357  31/03/2026 01:19:24  29.1  29.1  27.6  29.0  72.7  01:19 
 7356  31/03/2026 01:14:41  29.1  29.1  27.6  28.9  72.7  01:14 
 7355  31/03/2026 01:09:59  29.1  29.1  27.7  29.0  72.7  01:09 
 7354  31/03/2026 01:05:17  29.1  29.1  27.9  29.0  72.7  01:05 
 7353  31/03/2026 01:00:36  29.1  29.1  28.0  29.0  72.6  01:00 
 7352  31/03/2026 00:55:52  29.1  29.1  28.0  29.0  72.7  00:55 
 7351  31/03/2026 00:51:10  29.1  29.1  28.1  29.0  72.6  00:51 
 7350  31/03/2026 00:46:28  29.2  29.1  28.2  29.1  72.6  00:46 
 7349  31/03/2026 00:41:46  29.2  29.2  28.2  29.1  72.6  00:41 
 7348  31/03/2026 00:37:05  29.2  29.2  28.2  29.0  72.7  00:37 
 7347  31/03/2026 00:32:23  29.2  29.2  28.1  29.1  72.7  00:32 
 7346  31/03/2026 00:27:42  29.2  29.2  28.0  29.1  72.7  00:27 
 7345  31/03/2026 00:23:00  29.2  29.2  28.1  29.1  72.6  00:23 
 7344  31/03/2026 00:18:18  29.2  29.2  28.0  29.1  72.7  00:18 
 7343  31/03/2026 00:13:35  29.2  29.2  28.1  29.1  72.6  00:13 
 7342  31/03/2026 00:08:53  29.3  29.3  28.2  29.1  72.6  00:08 
 7341  31/03/2026 00:04:11  29.3  29.3  28.2  29.2  72.7  00:04 
 7340  30/03/2026 23:59:29  29.4  29.3  28.2  29.1  72.6  23:59 
 7339  30/03/2026 23:54:45  29.4  29.3  28.2  29.2  72.6  23:54 
 7338  30/03/2026 23:50:03  29.4  29.4  28.2  29.2  72.7  23:50 
 7337  30/03/2026 23:45:22  29.4  29.4  28.2  29.2  72.6  23:45 
 7336  30/03/2026 23:40:39  29.4  29.4  28.3  29.2  72.6  23:40 
 7335  30/03/2026 23:35:58  29.4  29.4  28.3  29.4  72.6  23:35 
 7334  30/03/2026 23:31:14  29.4  29.4  28.3  29.2  72.5  23:31 

Data every 5 minute.


ใช้เวลาประมวลผล 0.00183 วินาที